NINGXIA-1 2

Satellite information

Favourite Embed

Satellite Type and Status

PAYLOADIN ORBIT

Key statistics

Satellite NINGXIA-1 2 at a glance.

Uptime

2123

Days in orbit

Revolutions

≈ 14.0

Per day

Orbit

LEO

Low Earth Orbit

Inclination

45.0

Latest

Satellite identification and parameters

Extended collection of information and parameters for NINGXIA-1 2.

Object identification

Identified? True

Debris? False

Object name: NINGXIA-1 2

International designator: 2019-076B

Object number (NORAD): 44780

Object ID (CCSDS): 44780

Country: PEOPLES REPUBLIC OF CHINA (PRC)

Current information (Y/N): Y

RCS size: MEDIUM

Orbital parameters

Period: 102.714 minutes

Inclination: 45.01 deg

SMA: 7265.169 km

Apoapsis: 892.512 km

Periapsis: 881.556 km

RAAN: 21.9208 deg

Eccentricy: 0.00075398

Argument of periapsis: 231.4083 deg

Mean anomaly: 128.6077 deg

Mean motion: 14.01955364 rev/day

Mean motion (dot): 0.00000044 rev/day2

B* drag term: 0.00011300357 1/REarth

Two-line elements (TLE)

Creation date: Sept. 3, 2025, 10:15 a.m.

Reference frame: TEME

Reference center: EARTH

Epoch: Sept. 3, 2025, 8:22 a.m. UTC

TLE line 0: 0 NINGXIA-1 2

TLE line 1: 1 44780U 19076B 25246.34903008 .00000044 00000-0 11300-3 0 9998

TLE line 2: 2 44780 45.0100 21.9208 0007540 231.4083 128.6077 14.01955364297607

Live tracking on map

Real-time ground track for satellite NINGXIA-1 2.

In-orbit conjunctions

There are no conjunctions computed for NINGXIA-1 2, at the moment. Check back to stay up to date, as we update our databases every day.

Go to all conjunctions

Associated space launch

Ningxia 1 is a constellation of remote sensing satellites developed by Dongfanghong Satellite Co., Ltd.

NINGXIA-1 2 was lifted into orbit during the mission ‘Long March 6 | Ningxia 1 (x5)’, on board a Long March 6 space rocket.

The launch took place on Nov. 13, 2019, 6:35 a.m. from Launch Complex 16.

For more information about the launch, click the button.

Launch to space Long March 6 | Ningxia 1 (x5)
Long March 6 | Ningxia 1 (x5)

Agency: N/A

Status: Launch Successful

Launch date: Nov. 13, 2019, 6:35 a.m. UTC

Rocket: Long March 6

Launch pad: Launch Complex 16

Location: Taiyuan Satellite Launch Center, People's Republic of China

...

Latest news about this satellite

News about space launch
Long March 6 lofts five Ningxia-1 satellites

News about space launch
Two Chinese satellite launchers lift off three hours apart


Newsletter sign-up

Weekly statistics, charts and insights to help you stay on top of the space industry.